Flag Weather past 2 weeks in Bangor, Wales, United Kingdom

Now
61 °F

Cool.


Feels Like: 61 °F
Forecast: 57 / 65 °F
Wind: 31 mph from Southwest

Location: Capel Curig

Current Time: Oct 31, 2014 at 4:04:17 AM

Latest Report: Oct 31, 2014 at 3:00 AM


Visibility: 14 mi

Pressure: 29.88 "Hg

Humidity: 86%

Dew point: 56 °F

Location of BangorLocation

Historic Weather in Bangor — Graph

°F

Bangor temperature yesterday

Maximum temperature yesterday: 61 °F (at 5:00 PM)
Minimum temperature yesterday: 49 °F (at 12:00 AM)
Average temperature yesterday: 58 °F

Past Weeks' High & Low Weather Summary

 TemperatureHumidityPressure
High64 °F (Oct 18, 12:00 AM)98% (Oct 16, 3:00 AM)30.27 "Hg (Oct 16, 3:00 AM)
Low38 °F (Oct 29, 8:00 AM)55% (Oct 24, 3:00 PM)29.38 "Hg (Oct 21, 4:00 AM)
Average54 °F85%29.86 "Hg
* Reported Oct 16 3:00 AM — Oct 31 2:00 AM, Bangor, Weather by CustomWeather, © 2014

Note: Actual official high and low records may vary slightly from our data, if they occured in-between our weather recording intervals... More about our weather records

Advertising

Bangor weather history for previous 24 hours

 ConditionsComfort  
Time TempWeatherWind HumidityBarometerVisibility
2:00 AM
Oct 31
59 °FCool.26 mph88%29.90 "Hg19 mi
1:00 AM58 °FCool.29 mph91%29.92 "Hg2 mi
12:00 AM59 °FCool.32 mph84%29.92 "Hg9 mi
11:00 PM
Oct 30
60 °FCool.29 mph80%29.93 "Hg28 mi
10:00 PM59 °FCool.29 mph80%29.93 "Hg25 mi
9:00 PM59 °FCool.26 mph84%29.94 "Hg19 mi
8:00 PM59 °FCool.30 mph83%29.94 "Hg13 mi
7:00 PM59 °FCool.29 mph86%29.93 "Hg13 mi
6:00 PM60 °FCool.30 mph86%29.94 "Hg11 mi
5:00 PM61 °FCool.26 mph83%29.92 "Hg22 mi
4:00 PM60 °FCool.29 mph88%29.93 "Hg19 mi
3:00 PM59 °FCool.30 mph89%29.93 "Hg28 mi
2:00 PM60 °FCool.30 mph90%29.93 "Hg14 mi
1:00 PM58 °FCool.20 mph95%29.96 "Hg1 mi
12:00 PM58 °FCool.25 mph91%29.95 "Hg25 mi
11:00 AM58 °FCool.24 mph94%29.96 "Hg3 mi
10:00 AM57 °FCool.21 mph95%29.95 "Hg1 mi
9:00 AM57 °FCool.21 mph94%29.94 "Hg28 mi
8:00 AM58 °FLight freezing rain. Cloudy.24 mph93%29.92 "Hg10 mi
7:00 AM58 °FCool.23 mph93%29.92 "Hg8 mi
6:00 AM58 °FSmoke.21 mph91%29.91 "Hg4 mi
5:00 AM56 °FCool.15 mph96%29.91 "Hg11 mi
4:00 AM56 °FCool.9 mph91%29.92 "Hg5 mi
Weather by CustomWeather, © 2014

See weather overviewHow to use our weather pages